Cloud_Cover
0 0 0 95 74 1 100 28 42 100 100 100 100 100 100 100 100 100 99 93 6 0 0 0 0 0 0 0 0 0 0 0 0 0 2 0 0 0 0 0 0 0 0 0
0 0 0 0 78 49 68 85 26 5 39 100 100 100 100 89 80 94 57 45 13 5 0 0 0 0 0 0 0 0 0 0 0 0 0 0 0 0 0 0 0 0 0 0
0 0 0 0 0 5 5 48 56 40 5 3 15 26 50 26 42 0 0 45 9 5 4 0 0 0 0 0 0 0 0 0 0 0 0 0 3 0 0 0 0 0 0 0
0 0 0 0 0 0 1 5 12 6 5 1 0 4 0 0 2 0 0 0 2 8 66 4 0 0 0 0 0 0 0 0 0 0 0 1 0 4 5 2 0 0 4 4
0 0 0 0 0 0 0 0 3 5 5 6 5 0 0 0 0 0 0 0 0 0 3 6 5 0 0 0 0 0 0 0 0 0 0 0 4 0 10 5 5 5 1 5
0 0 0 0 0 0 0 0 0 4 5 2 1 4 0 0 0 0 5 0 1 1 0 0 4 3 0 0 0 0 0 0 0 0 0 0 0 0 6 5 20 5 5 5
0 0 0 0 0 0 0 0 0 0 14 0 0 0 0 0 0 3 1 0 5 4 0 0 3 5 3 0 0 0 0 0 0 0 0 0 0 0 0 5 10 51 92 17
0 0 0 0 0 0 0 0 0 0 0 0 1 0 0 0 5 84 5 32 5 5 3 2 0 5 5 5 1 0 0 0 0 0 0 0 0 0 0 0 3 5 100 100
0 0 0 0 0 0 0 0 0 0 0 0 0 0 0 0 1 67 100 78 5 0 0 2 0 0 1 5 5 0 0 0 0 0 0 0 0 0 0 0 16 14 100 100
0 0 0 0 0 0 0 0 0 0 0 0 0 0 0 0 0 4 20 6 5 4 0 0 0 0 0 0 0 5 0 1 1 0 0 0 0 0 5 5 3 58 100 100
0 0 0 0 0 0 0 0 0 0 0 0 0 0 0 0 0 0 4 5 5 5 2 2 0 0 0 0 0 0 3 0 2 3 0 0 0 0 2 6 2 5 9 24
0 0 0 0 0 0 0 0 0 0 0 0 0 0 0 0 0 0 2 5 5 5 70 5 5 0 0 78 0 0 5 3 5 5 0 0 0 0 0 0 5 9 5 5
0 0 0 0 0 0 0 0 0 0 0 0 0 0 0 0 0 0 0 99 41 27 3 67 24 5 0 0 1 4 3 34 5 5 0 2 4 0 0 0 0 3 5 39
0 0 0 0 0 0 0 0 0 0 0 0 0 0 0 0 0 0 0 1 86 15 8 80 10 18 5 3 0 27 25 100 61 91 11 5 5 72 28 0 0 0 0 0
0 0 0 0 0 0 0 0 0 0 0 0 0 0 0 0 0 2 71 26 0 89 21 33 100 16 10 67 4 1 3 96 100 41 64 5 5 5 78 94 12 2 0 0
0 0 0 0 0 0 0 0 0 0 0 0 0 0 0 0 18 20 52 100 61 100 100 100 92 20 100 51 100 12 0 5 82 100 100 86 67 5 6 49 69 35 6 5
0 0 0 0 0 0 0 0 0 0 0 0 0 0 0 55 8 38 64 100 100 100 100 100 100 63 77 55 18 100 80 6 9 31 99 100 99 77 8 40 73 53 33 40
3 0 0 0 0 1 0 0 0 0 0 0 0 0 0 29 38 11 6 100 100 100 97 100 100 100 100 100 92 82 96 100 66 83 96 94 13 100 47 12 57 76 5 5
0 0 0 0 0 0 0 0 0 0 0 0 0 0 0 0 24 0 4 68 100 100 100 100 100 100 100 100 100 76 100 100 100 100 100 100 97 100 9 85 64 49 44 87
0 0 0 0 0 0 0 0 0 7 30 0 0 0 0 0 0 0 6 97 100 100 100 100 100 84 100 100 95 64 100 100 100 100 100 100 100 97 100 64 100 62 97 100
0 0 0 0 2 0 0 0 0 0 0 1 52 2 0 0 66 49 100 100 100 100 100 100 100 100 100 97 100 100 100 100 100 100 100 100 100 99 100 100 100 100 100 100
0 2 3 3 1 3 0 0 0 0 0 0 66 96 11 0 0 66 100 100 100 93 100 100 100 100 87 89 100 100 100 100 100 100 100 100 100 100 100 100 100 100 100 99
5 5 70 56 57 44 12 94 3 5 1 0 0 62 86 64 99 100 100 100 100 100 100 100 100 100 100 100 100 100 100 100 100 100 100 100 100 100 100 100 100 100 100 100
5 5 10 85 19 77 5 6 32 3 4 0 25 70 88 100 100 100 100 100 100 100 100 99 100 100 81 100 100 100 100 100 98 100 100 100 100 100 100 100 100 100 100 100
49 8 29 94 5 9 5 6 4 0 1 30 70 100 100 100 100 100 100 100 100 100 100 100 100 100 95 66 100 100 100 100 91 100 100 100 100 100 100 100 100 100 100 100
4 5 7 22 25 99 68 24 61 66 63 99 100 100 100 100 100 100 100 100 100 100 100 100 100 100 100 96 100 100 66 96 100 100 100 100 100 100 100 100 100 100 100 100